Location: Unspecified
(0.0000°N, 0.0000°E)
Time: 10:17:08
(UTC+00:00)

Cosmos 80 Rocket - Pass Details

Date: 04 October 2021
Orbit: 1360 x 1510 km, 56.1° (Epoch: 23 October)

Event Time Altitude Azimuth Distance (km) Brightness Sun altitude
Rises 20:51:17 0° 282° (WNW) 4,553 8.7 -45.5°
Reaches altitude 10° 20:58:45 10° 241° (WSW) 3,528 7.9 -47.3°
Maximum altitude 20:59:28 10° 237° (WSW) 3,514 7.8 -47.5°
Drops below altitude 10° 21:00:11 10° 232° (SW) 3,519 7.8 -47.7°
Sets 21:07:35 0° 190° (S) 4,450 8.1 -49.5°
